Time,TemperatureF,DewpointF,PressureIn,WindDirection,WindDirectionDegrees,WindSpeedMPH,WindSpeedGustMPH,Humidity,HourlyPrecipIn,Conditions,Clouds,dailyrainin,SolarRadiationWatts/m^2,SoftwareType,DateUTC
2013-06-18 00:02:00,69.0,68.0,-100.00,South,178,0.0,0.0,98,0.00,,,0.49,0.000000,,2013-06-18 04:02:00,
2013-06-18 00:34:00,69.0,68.0,-100.00,South,178,0.0,0.0,98,0.00,,,0.49,0.000000,,2013-06-18 04:34:00,
2013-06-18 00:43:00,69.0,68.0,-100.00,South,178,0.0,0.0,98,0.00,,,0.49,0.000000,,2013-06-18 04:43:00,
2013-06-18 00:54:00,69.0,68.0,-100.00,South,178,0.0,0.0,98,0.00,,,0.49,0.000000,,2013-06-18 04:54:00,
2013-06-18 01:02:00,69.0,68.0,-100.00,SSE,156,0.0,0.0,98,0.00,,,0.30,0.000000,,2013-06-18 05:02:00,
2013-06-18 01:34:00,69.0,68.0,-100.00,SSE,156,0.0,0.0,98,0.00,,,0.30,0.000000,,2013-06-18 05:34:00,
2013-06-18 01:43:00,69.0,68.0,-100.00,SSE,156,0.0,0.0,98,0.00,,,0.30,0.000000,,2013-06-18 05:43:00,
2013-06-18 01:53:00,69.0,68.0,-100.00,SSE,156,0.0,0.0,98,0.00,,,0.30,0.000000,,2013-06-18 05:53:00,
2013-06-18 02:02:00,69.0,69.0,-100.00,North,352,0.0,0.0,99,0.00,,,0.18,0.000000,,2013-06-18 06:02:00,
2013-06-18 02:24:00,69.0,69.0,-100.00,North,352,0.0,0.0,99,0.00,,,0.18,0.000000,,2013-06-18 06:24:00,
2013-06-18 02:33:00,69.0,69.0,-100.00,North,352,0.0,0.0,99,0.00,,,0.18,0.000000,,2013-06-18 06:33:00,
2013-06-18 02:43:00,69.0,69.0,-100.00,North,352,0.0,0.0,99,0.00,,,0.18,0.000000,,2013-06-18 06:43:00,
2013-06-18 02:53:00,69.0,69.0,-100.00,North,352,0.0,0.0,99,0.00,,,0.18,0.000000,,2013-06-18 06:53:00,
2013-06-18 03:02:00,69.0,69.0,-100.00,NW,307,0.0,1.0,99,0.01,,,0.18,0.000000,,2013-06-18 07:02:00,
2013-06-18 03:33:00,69.0,69.0,-100.00,NW,307,0.0,1.0,99,0.01,,,0.18,0.000000,,2013-06-18 07:33:00,
2013-06-18 03:43:00,69.0,69.0,-100.00,NW,307,0.0,1.0,99,0.01,,,0.18,0.000000,,2013-06-18 07:43:00,
2013-06-18 03:53:00,69.0,69.0,-100.00,NW,307,0.0,1.0,99,0.01,,,0.18,0.000000,,2013-06-18 07:53:00,
2013-06-18 04:02:00,69.0,69.0,-100.00,NNW,340,0.0,2.0,99,0.01,,,0.19,0.000000,,2013-06-18 08:02:00,
2013-06-18 04:23:00,69.0,69.0,-100.00,NNW,340,0.0,2.0,99,0.01,,,0.19,0.000000,,2013-06-18 08:23:00,
2013-06-18 04:33:00,69.0,69.0,-100.00,NNW,340,0.0,2.0,99,0.01,,,0.19,0.000000,,2013-06-18 08:33:00,
2013-06-18 04:43:00,69.0,69.0,-100.00,NNW,340,0.0,2.0,99,0.01,,,0.19,0.000000,,2013-06-18 08:43:00,
2013-06-18 04:52:00,69.0,69.0,-100.00,NNW,340,0.0,2.0,99,0.01,,,0.19,0.000000,,2013-06-18 08:52:00,
2013-06-18 05:02:00,69.0,69.0,-100.00,NW,315,0.0,0.0,99,0.00,,,0.04,0.000000,,2013-06-18 09:02:00,
2013-06-18 05:34:00,69.0,69.0,-100.00,NW,315,0.0,0.0,99,0.00,,,0.04,0.000000,,2013-06-18 09:34:00,
2013-06-18 05:43:00,69.0,69.0,-100.00,NW,315,0.0,0.0,99,0.00,,,0.04,0.000000,,2013-06-18 09:43:00,
2013-06-18 05:53:00,69.0,69.0,-100.00,NW,315,0.0,0.0,99,0.00,,,0.04,0.000000,,2013-06-18 09:53:00,
2013-06-18 06:02:00,69.0,69.0,-100.00,South,183,0.0,0.0,99,0.00,,,0.04,0.000000,,2013-06-18 10:02:00,
2013-06-18 06:22:00,69.0,69.0,-100.00,South,183,0.0,0.0,99,0.00,,,0.04,0.000000,,2013-06-18 10:22:00,
2013-06-18 06:33:00,69.0,69.0,-100.00,South,183,0.0,0.0,99,0.00,,,0.04,0.000000,,2013-06-18 10:33:00,
2013-06-18 06:43:00,69.0,69.0,-100.00,South,183,0.0,0.0,99,0.00,,,0.04,0.000000,,2013-06-18 10:43:00,
2013-06-18 06:53:00,69.0,69.0,-100.00,South,183,0.0,0.0,99,0.00,,,0.04,0.000000,,2013-06-18 10:53:00,
2013-06-18 07:22:00,68.0,68.0,-100.00,South,185,0.0,0.0,99,0.00,,,0.04,4.000000,,2013-06-18 11:22:00,
2013-06-18 07:32:00,68.0,68.0,-100.00,South,185,0.0,0.0,99,0.00,,,0.04,4.000000,,2013-06-18 11:32:00,
2013-06-18 07:43:00,68.0,68.0,-100.00,South,185,0.0,0.0,99,0.00,,,0.04,4.000000,,2013-06-18 11:43:00,
2013-06-18 07:52:00,68.0,68.0,-100.00,South,185,0.0,0.0,99,0.00,,,0.04,4.000000,,2013-06-18 11:52:00,
2013-06-18 08:01:00,68.0,68.0,-100.00,South,185,0.0,0.0,99,0.00,,,0.04,4.000000,,2013-06-18 12:01:00,
2013-06-18 08:02:00,69.0,69.0,-100.00,South,190,1.0,5.0,99,0.00,,,0.04,17.000000,,2013-06-18 12:02:00,
2013-06-18 08:33:00,69.0,69.0,-100.00,South,190,1.0,5.0,99,0.00,,,0.04,17.000000,,2013-06-18 12:33:00,
2013-06-18 08:43:00,69.0,69.0,-100.00,South,190,1.0,5.0,99,0.00,,,0.04,17.000000,,2013-06-18 12:43:00,
2013-06-18 08:52:00,69.0,69.0,-100.00,South,190,1.0,5.0,99,0.00,,,0.04,17.000000,,2013-06-18 12:52:00,
2013-06-18 09:02:00,69.0,68.0,-100.00,South,181,2.0,6.0,98,0.05,,,0.09,41.000000,,2013-06-18 13:02:00,
2013-06-18 09:34:00,69.0,68.0,-100.00,South,181,2.0,6.0,98,0.05,,,0.09,41.000000,,2013-06-18 13:34:00,
2013-06-18 09:43:00,69.0,68.0,-100.00,South,181,2.0,6.0,98,0.05,,,0.09,41.000000,,2013-06-18 13:43:00,
2013-06-18 09:53:00,69.0,68.0,-100.00,South,181,2.0,6.0,98,0.05,,,0.09,41.000000,,2013-06-18 13:53:00,
2013-06-18 10:02:00,69.0,68.0,-100.00,South,191,2.0,10.0,95,0.05,,,0.14,129.000000,,2013-06-18 14:02:00,
2013-06-18 10:22:00,69.0,68.0,-100.00,South,191,2.0,10.0,95,0.05,,,0.14,129.000000,,2013-06-18 14:22:00,
2013-06-18 10:33:00,69.0,68.0,-100.00,South,191,2.0,10.0,95,0.05,,,0.14,129.000000,,2013-06-18 14:33:00,
2013-06-18 10:43:00,69.0,68.0,-100.00,South,191,2.0,10.0,95,0.05,,,0.14,129.000000,,2013-06-18 14:43:00,
2013-06-18 10:53:00,69.0,68.0,-100.00,South,191,2.0,10.0,95,0.05,,,0.14,129.000000,,2013-06-18 14:53:00,
2013-06-18 11:22:00,75.0,70.0,-100.00,WSW,243,3.0,7.0,84,0.00,,,0.13,470.000000,,2013-06-18 15:22:00,
2013-06-18 11:33:00,75.0,70.0,-100.00,WSW,243,3.0,7.0,84,0.00,,,0.13,470.000000,,2013-06-18 15:33:00,
2013-06-18 11:43:00,75.0,70.0,-100.00,WSW,243,3.0,7.0,84,0.00,,,0.13,470.000000,,2013-06-18 15:43:00,
2013-06-18 11:53:00,75.0,70.0,-100.00,WSW,243,3.0,7.0,84,0.00,,,0.13,470.000000,,2013-06-18 15:53:00,
2013-06-18 12:01:00,75.0,70.0,-100.00,WSW,243,3.0,7.0,84,0.00,,,0.13,470.000000,,2013-06-18 16:01:00,
2013-06-18 12:02:00,80.0,72.0,-100.00,West,269,4.0,11.0,76,0.00,,,0.13,765.000000,,2013-06-18 16:02:00,
2013-06-18 12:33:00,80.0,72.0,-100.00,West,269,4.0,11.0,76,0.00,,,0.13,765.000000,,2013-06-18 16:33:00,
2013-06-18 12:43:00,80.0,72.0,-100.00,West,269,4.0,11.0,76,0.00,,,0.13,765.000000,,2013-06-18 16:43:00,
2013-06-18 12:53:00,80.0,72.0,-100.00,West,269,4.0,11.0,76,0.00,,,0.13,765.000000,,2013-06-18 16:53:00,
2013-06-18 13:02:00,83.0,70.0,-100.00,WNW,299,5.0,10.0,65,0.00,,,0.13,865.000000,,2013-06-18 17:02:00,
2013-06-18 13:22:00,83.0,70.0,-100.00,WNW,299,5.0,10.0,65,0.00,,,0.13,865.000000,,2013-06-18 17:22:00,
2013-06-18 13:34:00,83.0,70.0,-100.00,WNW,299,5.0,10.0,65,0.00,,,0.13,865.000000,,2013-06-18 17:34:00,
2013-06-18 13:43:00,83.0,70.0,-100.00,WNW,299,5.0,10.0,65,0.00,,,0.13,865.000000,,2013-06-18 17:43:00,
2013-06-18 13:53:00,83.0,70.0,-100.00,WNW,299,5.0,10.0,65,0.00,,,0.13,865.000000,,2013-06-18 17:53:00,
2013-06-18 14:02:00,84.0,71.0,-100.00,WSW,241,4.0,11.0,66,0.00,,,0.13,825.000000,,2013-06-18 18:02:00,
2013-06-18 14:33:00,84.0,71.0,-100.00,WSW,241,4.0,11.0,66,0.00,,,0.13,825.000000,,2013-06-18 18:33:00,
2013-06-18 14:43:00,84.0,71.0,-100.00,WSW,241,4.0,11.0,66,0.00,,,0.13,825.000000,,2013-06-18 18:43:00,
2013-06-18 14:53:00,84.0,71.0,-100.00,WSW,241,4.0,11.0,66,0.00,,,0.13,825.000000,,2013-06-18 18:53:00,
2013-06-18 15:02:00,72.0,70.0,-100.00,NW,323,2.0,19.0,94,0.33,,,0.46,316.000000,,2013-06-18 19:02:00,
2013-06-18 15:43:00,72.0,70.0,-100.00,NW,323,2.0,19.0,94,0.33,,,0.46,316.000000,,2013-06-18 19:43:00,
2013-06-18 15:53:00,72.0,70.0,-100.00,NW,323,2.0,19.0,94,0.33,,,0.46,316.000000,,2013-06-18 19:53:00,
2013-06-18 16:02:00,79.0,72.0,-100.00,WNW,296,4.0,11.0,80,0.00,,,0.46,768.000000,,2013-06-18 20:02:00,
2013-06-18 16:23:00,79.0,72.0,-100.00,WNW,296,4.0,11.0,80,0.00,,,0.46,768.000000,,2013-06-18 20:23:00,
2013-06-18 16:33:00,79.0,72.0,-100.00,WNW,296,4.0,11.0,80,0.00,,,0.46,768.000000,,2013-06-18 20:33:00,
2013-06-18 16:43:00,79.0,72.0,-100.00,WNW,296,4.0,11.0,80,0.00,,,0.46,768.000000,,2013-06-18 20:43:00,
2013-06-18 16:52:00,79.0,72.0,-100.00,WNW,296,4.0,11.0,80,0.00,,,0.46,768.000000,,2013-06-18 20:52:00,
2013-06-18 17:02:00,81.0,73.0,-100.00,NNW,343,3.0,7.0,76,0.00,,,0.46,522.000000,,2013-06-18 21:02:00,
2013-06-18 17:33:00,81.0,73.0,-100.00,NNW,343,3.0,7.0,76,0.00,,,0.46,522.000000,,2013-06-18 21:33:00,
2013-06-18 17:43:00,81.0,73.0,-100.00,NNW,343,3.0,7.0,76,0.00,,,0.46,522.000000,,2013-06-18 21:43:00,
2013-06-18 17:52:00,81.0,73.0,-100.00,NNW,343,3.0,7.0,76,0.00,,,0.46,522.000000,,2013-06-18 21:52:00,
2013-06-18 18:02:00,74.0,72.0,-100.00,NNW,342,2.0,8.0,94,0.03,,,0.49,271.000000,,2013-06-18 22:02:00,
2013-06-18 18:22:00,74.0,72.0,-100.00,NNW,342,2.0,8.0,94,0.03,,,0.49,271.000000,,2013-06-18 22:22:00,
2013-06-18 18:34:00,74.0,72.0,-100.00,NNW,342,2.0,8.0,94,0.03,,,0.49,271.000000,,2013-06-18 22:34:00,
2013-06-18 18:43:00,74.0,72.0,-100.00,NNW,342,2.0,8.0,94,0.03,,,0.49,271.000000,,2013-06-18 22:43:00,
2013-06-18 18:53:00,74.0,72.0,-100.00,NNW,342,2.0,8.0,94,0.03,,,0.49,271.000000,,2013-06-18 22:53:00,
2013-06-18 19:02:00,72.0,70.0,-100.00,West,259,2.0,9.0,95,0.06,,,0.54,73.000000,,2013-06-18 23:02:00,
2013-06-18 19:23:00,72.0,70.0,-100.00,West,259,2.0,9.0,95,0.06,,,0.54,73.000000,,2013-06-18 23:23:00,
2013-06-18 19:39:00,72.0,70.0,-100.00,West,259,2.0,9.0,95,0.06,,,0.54,73.000000,,2013-06-18 23:39:00,
2013-06-18 19:48:00,72.0,70.0,-100.00,West,259,2.0,9.0,95,0.06,,,0.54,73.000000,,2013-06-18 23:48:00,
2013-06-18 20:22:00,71.0,69.0,-100.00,West,268,2.0,6.0,95,0.00,,,0.54,85.000000,,2013-06-19 00:22:00,
2013-06-18 20:33:00,71.0,69.0,-100.00,West,268,2.0,6.0,95,0.00,,,0.54,85.000000,,2013-06-19 00:33:00,
2013-06-18 20:43:00,71.0,69.0,-100.00,West,268,2.0,6.0,95,0.00,,,0.54,85.000000,,2013-06-19 00:43:00,
2013-06-18 20:53:00,71.0,69.0,-100.00,West,268,2.0,6.0,95,0.00,,,0.54,85.000000,,2013-06-19 00:53:00,
2013-06-18 21:01:00,71.0,69.0,-100.00,West,268,2.0,6.0,95,0.00,,,0.54,85.000000,,2013-06-19 01:01:00,
2013-06-18 21:22:00,70.0,69.0,-100.00,West,276,3.0,6.0,98,0.00,,,0.54,7.000000,,2013-06-19 01:22:00,
2013-06-18 21:32:00,70.0,69.0,-100.00,West,276,3.0,6.0,98,0.00,,,0.54,7.000000,,2013-06-19 01:32:00,
2013-06-18 21:43:00,70.0,69.0,-100.00,West,276,3.0,6.0,98,0.00,,,0.54,7.000000,,2013-06-19 01:43:00,
2013-06-18 21:53:00,70.0,69.0,-100.00,West,276,3.0,6.0,98,0.00,,,0.54,7.000000,,2013-06-19 01:53:00,
2013-06-18 22:01:00,70.0,69.0,-100.00,West,276,3.0,6.0,98,0.00,,,0.54,7.000000,,2013-06-19 02:01:00,
2013-06-18 22:21:00,69.0,68.0,-100.00,SW,224,2.0,9.0,98,0.01,,,0.55,0.000000,,2013-06-19 02:21:00,
2013-06-18 22:32:00,69.0,68.0,-100.00,SW,224,2.0,9.0,98,0.01,,,0.55,0.000000,,2013-06-19 02:32:00,
2013-06-18 22:43:00,69.0,68.0,-100.00,SW,224,2.0,9.0,98,0.01,,,0.55,0.000000,,2013-06-19 02:43:00,
2013-06-18 22:52:00,69.0,68.0,-100.00,SW,224,2.0,9.0,98,0.01,,,0.55,0.000000,,2013-06-19 02:52:00,
2013-06-18 23:01:00,69.0,68.0,-100.00,SW,224,2.0,9.0,98,0.01,,,0.55,0.000000,,2013-06-19 03:01:00,
2013-06-18 23:02:00,69.0,68.0,-100.00,West,271,2.0,5.0,98,0.00,,,0.55,0.000000,,2013-06-19 03:02:00,
2013-06-18 23:22:00,69.0,68.0,-100.00,West,271,2.0,5.0,98,0.00,,,0.55,0.000000,,2013-06-19 03:22:00,
2013-06-18 23:33:00,69.0,68.0,-100.00,West,271,2.0,5.0,98,0.00,,,0.55,0.000000,,2013-06-19 03:33:00,
2013-06-18 23:43:00,69.0,68.0,-100.00,West,271,2.0,5.0,98,0.00,,,0.55,0.000000,,2013-06-19 03:43:00,
2013-06-18 23:52:00,69.0,68.0,-100.00,West,271,2.0,5.0,98,0.00,,,0.55,0.000000,,2013-06-19 03:52:00,